Wetterstats.de || Aktuelle Messwerte || Aktuelle Wetterkarten NEU! || Radar / Satellit NEU! || Wetterarchiv || Langzeitwerte NEU! || Klim. Kenntage || Met. Ereignisse || Agrarwerte || Echtzeitwerte

Monatsübersicht für März 2020 Diagramm
 
Wetter Information zur Wetteranzeige
Zeitraffer
Tageslänge (hh:mm)
Höchsttemperatur in °C
Uhrzeit
Tiefsttemperatur in °C
Uhrzeit
Luftfeuchte (max., in %)
Uhrzeit
Luftfeuchte (min., in %)
Uhrzeit
Luftdruck (max., in hPa)
Uhrzeit
Luftdruck (min., in hPa)
Uhrzeit
Luftdruck (Ø, in hPa)
Regenrate (max, mm/h)
Uhrzeit
Niederschlag in mm
Verdunstung in mm
Solar in W/m² (Ø)
Solar in W/m² (max.)
UV-Index (max.)
Sonnenscheindauer (hh:mm)
Windrichtung (Ø)
Windstärke (Ø in km/h)
Windstärke (Ø in bft)
Windböe (max., in km/h)
Uhrzeit
Windböe (max., in bft)
Uhrzeit
Taupunkt (max., in °C)
Uhrzeit
Taupunkt (min., in °C)
Uhrzeit
Windchill (min., in °C)
Uhrzeit
Gewitterindex (max.)
Uhrzeit
Waldbrandindex (max.)
Uhrzeit
Graslandfeuerindex (max.)
Uhrzeit
Staubsturm-Index (max.)
Uhrzeit
01
Kein Zeitraffer vorhanden
10:58
11.7
12:50 Uhr
2.6
22:55 Uhr

98
23:00 Uhr
59
12:55 Uhr
997.8
08:05 Uhr

994.7
00:00 Uhr
996.5
4,800
15:45 Uhr
2,200
1.270
143
547
11:25 Uhr
1.8
11:20 Uhr

02:15:00
9,1
2
46,7
11:10 Uhr

6
6.1
00:20 Uhr
2.1
22:55 Uhr
-1.6
15:45 Uhr
0
00:00 Uhr

00:00 Uhr

00:00 Uhr

00:00 Uhr
02
Kein Zeitraffer vorhanden
11:02
7.7
13:40 Uhr
2.3
01:20 Uhr

98
00:00 Uhr
81
13:45 Uhr
995.2
00:00 Uhr

991.8
05:45 Uhr
993.7
0,000
00:00 Uhr
0,000
0.584
95
357
09:40 Uhr
1.3
11:20 Uhr

00:25:00
6,8
1
29,0
09:55 Uhr

4
4.9
12:00 Uhr
1.6
21:35 Uhr
-1.8
02:20 Uhr
0
00:00 Uhr

00:00 Uhr

00:00 Uhr

00:00 Uhr
03
Kein Zeitraffer vorhanden
11:06
5.3
17:55 Uhr
2.4
06:55 Uhr

97
14:35 Uhr
91
10:55 Uhr
1004.5
23:55 Uhr

993.5
03:35 Uhr
997.1
2,400
13:10 Uhr
5,600
0.330
70
236
10:20 Uhr
0.8
10:00 Uhr

00:05:00
5,4
1
33,8
20:40 Uhr

5
4.9
18:10 Uhr
1.6
00:20 Uhr
-1.2
23:50 Uhr
0
00:00 Uhr

00:00 Uhr

00:00 Uhr

00:00 Uhr
04
Kein Zeitraffer vorhanden
11:09
8.3
13:50 Uhr
0.2
04:55 Uhr

97
06:10 Uhr
68
13:50 Uhr
1009.6
09:30 Uhr

1004.4
00:00 Uhr
1008.5
2,400
01:15 Uhr
0,600
1.245
219
631
12:05 Uhr
1.7
12:20 Uhr

05:30:00
6,9
1
27,4
12:05 Uhr

4
3.8
12:15 Uhr
-0.3
04:50 Uhr
-3.4
04:05 Uhr
0
00:00 Uhr

00:00 Uhr

00:00 Uhr

00:00 Uhr
05
Kein Zeitraffer vorhanden
11:14
10.3
13:05 Uhr
-0.3
07:00 Uhr

99
07:40 Uhr
55
16:15 Uhr
1008.9
00:05 Uhr

994.8
23:55 Uhr
1003.2
0,000
00:00 Uhr
0,000
1.575
232
608
12:35 Uhr
2.0
12:10 Uhr

05:20:00
6,9
1
29,0
12:20 Uhr

4
4.7
11:00 Uhr
-0.6
07:00 Uhr
-0.6
23:20 Uhr
0
00:00 Uhr

00:00 Uhr

00:00 Uhr

00:00 Uhr
06
Kein Zeitraffer vorhanden
11:18
7.9
16:00 Uhr
3.1
07:00 Uhr

99
18:15 Uhr
71
00:00 Uhr
997.4
23:55 Uhr

991.5
05:55 Uhr
993.2
2,400
05:15 Uhr
1,800
0.584
73
213
14:30 Uhr
0.9
11:45 Uhr

00:00:00
8,1
2
29,0
09:45 Uhr

4
7.6
16:00 Uhr
0.1
00:10 Uhr
-1.1
06:55 Uhr
0
00:00 Uhr

00:00 Uhr

00:00 Uhr

00:00 Uhr
07
Kein Zeitraffer vorhanden
11:22
5.9
00:00 Uhr
2.8
05:55 Uhr

99
01:15 Uhr
88
22:45 Uhr
1018.5
23:45 Uhr

997.4
00:00 Uhr
1009.0
2,400
00:15 Uhr
1,600
0.305
48
167
09:00 Uhr
0.6
08:55 Uhr

00:00:00
6,9
1
33,8
02:00 Uhr

5
5.5
00:00 Uhr
1.4
23:40 Uhr
-3.4
03:45 Uhr
0
00:00 Uhr

00:00 Uhr

00:00 Uhr

00:00 Uhr
08
Kein Zeitraffer vorhanden
11:27
10.3
12:30 Uhr
-0.2
06:10 Uhr

97
07:15 Uhr
60
11:45 Uhr
1019.0
01:30 Uhr

1011.0
23:50 Uhr
1015.7
0,000
00:00 Uhr
0,000
1.499
202
580
11:20 Uhr
2.1
11:30 Uhr

04:35:00
7,2
2
30,6
12:35 Uhr

5
4.3
10:35 Uhr
-1.0
06:05 Uhr
-0.2
00:55 Uhr
0
00:00 Uhr

00:00 Uhr

00:00 Uhr

00:00 Uhr
09
Kein Zeitraffer vorhanden
11:31
8.3
15:25 Uhr
4.3
23:45 Uhr

97
12:45 Uhr
81
00:15 Uhr
1012.8
22:45 Uhr

1008.8
06:00 Uhr
1010.4
2,400
08:25 Uhr
1,000
0.584
94
183
12:00 Uhr
0.8
12:00 Uhr

00:05:00
6,1
1
22,5
09:50 Uhr

4
7.7
15:25 Uhr
2.4
03:20 Uhr
2.2
23:45 Uhr
0
00:00 Uhr

00:00 Uhr

00:00 Uhr

00:00 Uhr
10
Kein Zeitraffer vorhanden
11:34
8.7
23:55 Uhr
2.0
06:30 Uhr

99
22:05 Uhr
81
10:55 Uhr
1012.9
00:15 Uhr

998.5
23:45 Uhr
1006.2
2,400
01:20 Uhr
6,400
0.813
118
594
10:50 Uhr
1.7
10:45 Uhr

01:30:00
10,7
2
41,8
12:00 Uhr

6
8.5
23:55 Uhr
1.6
05:50 Uhr
-1.4
08:15 Uhr
0
00:00 Uhr

00:00 Uhr

00:00 Uhr

00:00 Uhr
11
Kein Zeitraffer vorhanden
11:39
12.9
12:50 Uhr
6.4
21:25 Uhr

99
00:00 Uhr
61
13:05 Uhr
1010.5
19:30 Uhr

998.1
00:30 Uhr
1006.2
12,000
01:45 Uhr
3,800
1.803
197
677
12:10 Uhr
2.3
12:15 Uhr

04:00:00
10,3
2
54,7
12:55 Uhr

7
10.0
01:45 Uhr
4.3
19:45 Uhr
2.7
00:20 Uhr
2
00:15 Uhr

00:00 Uhr

00:00 Uhr

00:00 Uhr
12
Kein Zeitraffer vorhanden
11:43
14.2
09:20 Uhr
4.3
22:30 Uhr

100
02:50 Uhr
39
16:15 Uhr
1008.2
19:50 Uhr

1000.1
09:20 Uhr
1004.7
14,400
10:30 Uhr
4,600
2.032
178
780
13:05 Uhr
2.1
11:30 Uhr

03:25:00
13,4
3
62,8
13:40 Uhr

7
10.4
04:55 Uhr
-2.8
17:00 Uhr
1.2
23:45 Uhr
2
02:15 Uhr

00:00 Uhr

00:00 Uhr

00:00 Uhr
13
Kein Zeitraffer vorhanden
11:47
9.3
12:20 Uhr
2.4
04:50 Uhr

81
04:45 Uhr
59
13:10 Uhr
1016.7
23:50 Uhr

1007.3
12:50 Uhr
1009.7
0,000
00:00 Uhr
0,000
1.727
177
559
10:40 Uhr
1.8
10:55 Uhr

02:10:00
14,4
3
69,2
13:20 Uhr

8
3.8
18:20 Uhr
-1.5
00:00 Uhr
-2.4
06:10 Uhr
0
00:00 Uhr

00:00 Uhr

00:00 Uhr

00:00 Uhr
14
Kein Zeitraffer vorhanden
11:51
7.5
15:00 Uhr
-1.1
20:55 Uhr

84
02:50 Uhr
38
15:10 Uhr
1025.8
20:45 Uhr

1016.8
00:00 Uhr
1023.2
0,000
00:00 Uhr
0,000
1.956
321
571
12:40 Uhr
2.0
11:45 Uhr

08:35:00
4,0
1
25,7
00:50 Uhr

4
-0.5
00:05 Uhr
-7.6
10:20 Uhr
-1.1
20:55 Uhr
0
00:00 Uhr

00:00 Uhr

00:00 Uhr

00:00 Uhr
15
Kein Zeitraffer vorhanden
11:55
11.1
13:20 Uhr
-2.4
05:15 Uhr

78
01:20 Uhr
27
15:55 Uhr
1025.6
00:00 Uhr

1016.9
23:00 Uhr
1021.4
0,000
00:00 Uhr
0,000
2.997
302
603
11:50 Uhr
2.1
11:45 Uhr

08:40:00
10,2
2
41,8
18:10 Uhr

6
-2.6
09:40 Uhr
-7.6
16:05 Uhr
-7.4
06:55 Uhr
0
00:00 Uhr

00:00 Uhr

00:00 Uhr

00:00 Uhr


 
Wetter Information zur Wetteranzeige
Zeitraffer
Tageslänge (hh:mm)
Höchsttemperatur in °C
Uhrzeit
Tiefsttemperatur in °C
Uhrzeit
Luftfeuchte (max., in %)
Uhrzeit
Luftfeuchte (min., in %)
Uhrzeit
Luftdruck (max., in hPa)
Uhrzeit
Luftdruck (min., in hPa)
Uhrzeit
Luftdruck (Ø, in hPa)
Regenrate (max, mm/h)
Uhrzeit
Niederschlag in mm
Verdunstung in mm
Solar in W/m² (Ø)
Solar in W/m² (max.)
UV-Index (max.)
Sonnenscheindauer (hh:mm)
Windrichtung (Ø)
Windstärke (Ø in km/h)
Windstärke (Ø in bft)
Windböe (max., in km/h)
Uhrzeit
Windböe (max., in bft)
Uhrzeit
Taupunkt (max., in °C)
Uhrzeit
Taupunkt (min., in °C)
Uhrzeit
Windchill (min., in °C)
Uhrzeit
Gewitterindex (max.)
Uhrzeit
Waldbrandindex (max.)
Uhrzeit
Graslandfeuerindex (max.)
Uhrzeit
Staubsturm-Index (max.)
Uhrzeit
16
Kein Zeitraffer vorhanden
11:59
15.9
15:10 Uhr
3.3
04:20 Uhr

82
23:50 Uhr
42
11:55 Uhr
1023.2
23:10 Uhr

1016.2
04:45 Uhr
1018.8
0,000
00:00 Uhr
0,000
2.845
302
612
11:20 Uhr
2.2
11:55 Uhr

08:20:00
7,5
2
29,0
09:25 Uhr

4
4.1
17:00 Uhr
-5.0
06:20 Uhr
-0.5
04:45 Uhr
0
00:00 Uhr

00:00 Uhr

00:00 Uhr

00:00 Uhr
17
Kein Zeitraffer vorhanden
12:04
15.6
15:25 Uhr
0.7
05:35 Uhr

96
07:05 Uhr
63
15:15 Uhr
1028.0
21:45 Uhr

1023.0
00:00 Uhr
1026.0
0,000
00:00 Uhr
0,000
1.651
209
696
13:15 Uhr
2.2
13:20 Uhr

04:05:00
4,6
1
24,1
16:05 Uhr

4
9.0
16:15 Uhr
-0.4
05:30 Uhr
0.7
05:35 Uhr
0
00:00 Uhr

00:00 Uhr

00:00 Uhr

00:00 Uhr
18
Kein Zeitraffer vorhanden
12:08
16.8
14:35 Uhr
5.7
05:50 Uhr

98
04:10 Uhr
51
11:20 Uhr
1027.5
00:00 Uhr

1022.6
16:30 Uhr
1024.9
0,000
00:00 Uhr
0,000
2.642
291
571
12:10 Uhr
2.3
12:10 Uhr

09:05:00
7,8
2
35,4
12:35 Uhr

5
8.0
14:35 Uhr
3.7
23:30 Uhr
5.0
03:15 Uhr
0
00:00 Uhr

00:00 Uhr

00:00 Uhr

00:00 Uhr
19
Kein Zeitraffer vorhanden
12:11
15.8
12:20 Uhr
6.9
03:10 Uhr

88
20:10 Uhr
64
12:25 Uhr
1025.1
20:05 Uhr

1022.5
04:10 Uhr
1023.7
0,000
00:00 Uhr
0,000
1.549
180
642
12:05 Uhr
2.5
12:15 Uhr

02:55:00
7,0
1
27,4
10:40 Uhr

4
10.0
13:30 Uhr
3.4
03:20 Uhr
3.2
06:15 Uhr
0
00:00 Uhr

00:00 Uhr

00:00 Uhr

00:00 Uhr
20
Kein Zeitraffer vorhanden
12:16
8.6
11:05 Uhr
5.1
23:55 Uhr

89
01:25 Uhr
64
12:15 Uhr
1026.1
23:30 Uhr

1023.8
16:30 Uhr
1024.6
2,400
19:20 Uhr
0,200
0.838
102
292
10:45 Uhr
1.1
10:40 Uhr

00:00:00
5,2
1
24,1
18:05 Uhr

4
5.3
00:00 Uhr
1.6
12:15 Uhr
2.6
23:35 Uhr
0
00:00 Uhr

00:00 Uhr

00:00 Uhr

00:00 Uhr
21
Kein Zeitraffer vorhanden
12:20
7.5
14:55 Uhr
-0.6
23:55 Uhr

89
06:35 Uhr
44
13:30 Uhr
1032.9
23:55 Uhr

1026.0
00:00 Uhr
1029.4
0,000
00:00 Uhr
0,000
2.134
241
856
11:40 Uhr
2.4
11:40 Uhr

03:25:00
9,9
2
35,4
09:30 Uhr

5
2.2
01:00 Uhr
-5.2
16:35 Uhr
-5.3
08:40 Uhr
0
00:00 Uhr

00:00 Uhr

00:00 Uhr

00:00 Uhr
22
Kein Zeitraffer vorhanden
12:24
6.0
14:00 Uhr
-2.9
05:35 Uhr

85
05:55 Uhr
29
14:05 Uhr
1039.3
23:30 Uhr

1032.8
00:00 Uhr
1035.7
0,000
00:00 Uhr
0,000
2.286
313
773
12:00 Uhr
2.4
11:35 Uhr

07:25:00
8,2
2
33,8
10:15 Uhr

5
-2.9
08:30 Uhr
-11.3
15:30 Uhr
-7.2
09:00 Uhr
0
00:00 Uhr

00:00 Uhr

00:00 Uhr

00:00 Uhr
23
Kein Zeitraffer vorhanden
12:28
6.2
14:05 Uhr
-6.0
04:55 Uhr

79
04:55 Uhr
34
13:40 Uhr
1040.8
08:25 Uhr

1036.9
17:00 Uhr
1038.9
0,000
00:00 Uhr
0,000
2.489
344
626
12:15 Uhr
2.3
11:45 Uhr

08:55:00
6,1
1
27,4
10:15 Uhr

4
-6.4
09:35 Uhr
-9.7
00:00 Uhr
-6.0
04:55 Uhr
0
00:00 Uhr

00:00 Uhr

00:00 Uhr

00:00 Uhr
24
Kein Zeitraffer vorhanden
12:32
8.6
15:05 Uhr
-6.3
05:55 Uhr

80
06:15 Uhr
28
15:30 Uhr
1039.1
09:10 Uhr

1034.9
16:50 Uhr
1036.9
0,000
00:00 Uhr
0,000
2.692
351
631
12:20 Uhr
2.3
11:40 Uhr

09:05:00
6,5
1
33,8
10:15 Uhr

5
-7.0
13:40 Uhr
-9.9
04:10 Uhr
-6.3
05:55 Uhr
0
00:00 Uhr

00:00 Uhr

00:00 Uhr

00:00 Uhr
25
Kein Zeitraffer vorhanden
12:36
10.5
14:20 Uhr
-2.4
05:50 Uhr

59
05:55 Uhr
24
14:15 Uhr
1035.2
00:00 Uhr

1029.5
17:50 Uhr
1032.4
0,000
00:00 Uhr
0,000
3.505
351
638
12:10 Uhr
2.4
11:35 Uhr

09:10:00
10,7
2
38,6
09:20 Uhr

5
-7.7
15:20 Uhr
-9.7
03:45 Uhr
-5.0
08:35 Uhr
0
00:00 Uhr

00:00 Uhr

00:00 Uhr

00:00 Uhr
26
Kein Zeitraffer vorhanden
12:41
11.8
14:50 Uhr
-1.1
06:00 Uhr

60
07:20 Uhr
32
12:50 Uhr
1029.6
08:35 Uhr

1024.8
23:55 Uhr
1027.6
0,000
00:00 Uhr
0,000
3.048
331
617
12:15 Uhr
2.2
11:25 Uhr

08:10:00
8,2
2
30,6
14:20 Uhr

5
-2.4
15:25 Uhr
-9.0
00:40 Uhr
-2.9
03:10 Uhr
0
00:00 Uhr

00:00 Uhr

00:00 Uhr

00:00 Uhr
27
Kein Zeitraffer vorhanden
12:44
16.1
14:55 Uhr
1.9
05:40 Uhr

80
23:35 Uhr
40
14:55 Uhr
1024.8
00:00 Uhr

1019.8
23:55 Uhr
1022.2
0,000
00:00 Uhr
0,000
2.870
334
610
12:15 Uhr
2.2
11:30 Uhr

09:00:00
5,4
1
22,5
15:25 Uhr

4
3.4
15:15 Uhr
-3.1
05:50 Uhr
1.9
05:40 Uhr
0
00:00 Uhr

00:00 Uhr

00:00 Uhr

00:00 Uhr
28
Kein Zeitraffer vorhanden
12:49
13.4
14:45 Uhr
1.8
05:55 Uhr

92
06:15 Uhr
46
19:45 Uhr
1019.8
00:00 Uhr

1014.7
17:00 Uhr
1017.4
0,000
00:00 Uhr
0,000
2.591
331
603
12:05 Uhr
2.2
11:30 Uhr

08:55:00
7,1
2
29,0
18:20 Uhr

4
5.6
12:45 Uhr
-3.5
20:25 Uhr
-1.2
05:05 Uhr
0
00:00 Uhr

00:00 Uhr

00:00 Uhr

00:00 Uhr
29
Kein Zeitraffer vorhanden
12:53
5.8
11:00 Uhr
-1.0
23:50 Uhr

92
13:25 Uhr
67
19:30 Uhr
1028.2
23:55 Uhr

1015.5
04:20 Uhr
1020.2
2,400
12:45 Uhr
2,000
0.838
84
490
16:20 Uhr
1.2
16:15 Uhr

00:40:00
8,9
2
45,1
16:35 Uhr

6
3.0
10:55 Uhr
-4.9
23:55 Uhr
-5.9
17:50 Uhr
0
00:00 Uhr

00:00 Uhr

00:00 Uhr

00:00 Uhr
30
Kein Zeitraffer vorhanden
12:57
5.4
13:40 Uhr
-3.7
05:10 Uhr

90
23:20 Uhr
38
11:55 Uhr
1028.2
00:05 Uhr

1023.2
15:35 Uhr
1025.6
0,000
00:00 Uhr
0,000
1.880
280
773
12:05 Uhr
2.4
12:05 Uhr

07:05:00
6,3
1
37,0
14:05 Uhr

5
-0.7
23:50 Uhr
-8.4
12:00 Uhr
-6.2
00:05 Uhr
0
00:00 Uhr

00:00 Uhr

00:00 Uhr

00:00 Uhr
31
Kein Zeitraffer vorhanden
13:01
5.2
14:55 Uhr
-2.7
06:50 Uhr

92
02:10 Uhr
42
13:45 Uhr
1029.9
09:25 Uhr

1025.4
00:00 Uhr
1027.9
0,000
00:00 Uhr
0,000
1.702
268
907
13:40 Uhr
3.0
13:05 Uhr

05:25:00
6,6
1
25,7
17:10 Uhr

4
-0.7
00:00 Uhr
-8.0
13:50 Uhr
-4.1
05:30 Uhr
0
00:00 Uhr

00:00 Uhr

00:00 Uhr

00:00 Uhr
Stationsstandorte || Wetterblog || Wissenswertes || Downloads || Seitenhistorie || Partner || Impressum / Datenschutz